When you browse on this site, cookies collect data to enhance your experience and personalize the content and advertising you see.
Visit our Privacy Policy to learn more. By continuing to use the site, you agree to this use of cookies and data.
  • In Schweiz
  • Länderverzeichnis
  • Für 7 Tage
  • Wassertemperatur
  • Wetterkarte
  • Widgets
  • user-avatar
    Anmelden

    Stündliche Wetter Xinshi

    Heute, 30 Mai, Samstag

    Zeit Temperatur Niederschläge Wind Luftdruck Luftfeuchtigkeit
    00:00 +21°C° 0 mm 2 m/S 750 mmHg 94%
    01:00 +22°C° 0 mm 1 m/S 750 mmHg 95%
    02:00 +22°C° 0 mm 1 m/S 750 mmHg 94%
    03:00 +21°C° 0 mm 1 m/S 750 mmHg 95%
    04:00 +21°C° 0 mm 1 m/S 750 mmHg 96%
    05:00 +21°C° 0 mm 1 m/S 750 mmHg 97%
    06:00 +22°C° 0 mm 1 m/S 750 mmHg 93%
    07:00 +23°C° 0 mm 1 m/S 751 mmHg 88%
    08:00 +24°C° 0 mm 1 m/S 751 mmHg 85%
    09:00 +25°C° 0 mm 1 m/S 751 mmHg 80%
    10:00 +26°C° 0 mm 1 m/S 751 mmHg 76%
    11:00 +27°C° 0 mm 1 m/S 751 mmHg 71%
    12:00 +28°C° 0 mm 1 m/S 751 mmHg 68%
    13:00 +29°C° 0 mm 2 m/S 750 mmHg 65%
    14:00 +29°C° 0 mm 2 m/S 750 mmHg 62%
    15:00 +30°C° 0 mm 2 m/S 750 mmHg 61%
    16:00 +30°C° 0 mm 2 m/S 749 mmHg 59%
    17:00 +30°C° 0 mm 1 m/S 749 mmHg 58%
    18:00 +29°C° 0 mm 1 m/S 749 mmHg 63%
    19:00 +27°C° 0 mm 1 m/S 749 mmHg 68%
    20:00 +26°C° 0 mm 1 m/S 750 mmHg 75%
    21:00 +25°C° 0 mm 1 m/S 750 mmHg 78%
    22:00 +25°C° 0 mm 1 m/S 751 mmHg 80%
    23:00 +24°C° 0 mm 1 m/S 751 mmHg 83%

    Morgen, 31 Mai, Sonntag

    Zeit Temperatur Niederschläge Wind Luftdruck Luftfeuchtigkeit
    00:00 +24°C° 0 mm 1 m/S 751 mmHg 85%
    01:00 +24°C° 0 mm 1 m/S 751 mmHg 86%
    02:00 +23°C° 0 mm 1 m/S 751 mmHg 88%
    03:00 +23°C° 0 mm 1 m/S 751 mmHg 89%
    04:00 +23°C° 0 mm 1 m/S 751 mmHg 89%
    05:00 +23°C° 0 mm 1 m/S 751 mmHg 90%
    06:00 +24°C° 0 mm 1 m/S 751 mmHg 86%
    07:00 +25°C° 0 mm 1 m/S 751 mmHg 81%
    08:00 +26°C° 0 mm 1 m/S 751 mmHg 77%
    09:00 +28°C° 0 mm 2 m/S 752 mmHg 71%
    10:00 +29°C° 0 mm 2 m/S 752 mmHg 65%
    11:00 +31°C° 0 mm 2 m/S 752 mmHg 59%
    12:00 +32°C° 0 mm 2 m/S 751 mmHg 55%
    13:00 +34°C° 0 mm 2 m/S 750 mmHg 50%
    14:00 +35°C° 0 mm 2 m/S 750 mmHg 46%
    15:00 +35°C° 0 mm 2 m/S 750 mmHg 49%
    16:00 +34°C° 0 mm 2 m/S 750 mmHg 52%
    17:00 +34°C° 0 mm 2 m/S 750 mmHg 55%
    18:00 +31°C° 0 mm 2 m/S 750 mmHg 60%
    19:00 +29°C° 0 mm 2 m/S 750 mmHg 65%
    20:00 +28°C° 0 mm 3 m/S 750 mmHg 70%
    21:00 +27°C° 0.2 mm 2 m/S 750 mmHg 74%
    22:00 +26°C° 0.2 mm 2 m/S 751 mmHg 79%
    23:00 +25°C° 0.2 mm 2 m/S 751 mmHg 84%

    übermorgen, 1 Juni, Montag

    Zeit Temperatur Niederschläge Wind Luftdruck Luftfeuchtigkeit
    00:00 +25°C° 0 mm 1 m/S 751 mmHg 85%
    01:00 +25°C° 0 mm 1 m/S 751 mmHg 85%
    02:00 +24°C° 0 mm 1 m/S 751 mmHg 86%
    03:00 +24°C° 0 mm 1 m/S 751 mmHg 84%
    04:00 +24°C° 0 mm 1 m/S 751 mmHg 81%
    05:00 +23°C° 0 mm 1 m/S 751 mmHg 79%
    06:00 +25°C° 0 mm 1 m/S 751 mmHg 73%
    07:00 +26°C° 0 mm 1 m/S 751 mmHg 67%
    08:00 +28°C° 0 mm 1 m/S 751 mmHg 61%
    09:00 +29°C° 0 mm 2 m/S 751 mmHg 56%
    10:00 +31°C° 0 mm 2 m/S 751 mmHg 50%
    11:00 +33°C° 0 mm 3 m/S 751 mmHg 45%
    12:00 +34°C° 0 mm 3 m/S 750 mmHg 44%
    13:00 +35°C° 0 mm 3 m/S 750 mmHg 42%
    14:00 +35°C° 0 mm 3 m/S 749 mmHg 41%
    15:00 +35°C° 0 mm 3 m/S 749 mmHg 42%
    16:00 +35°C° 0 mm 3 m/S 748 mmHg 43%
    17:00 +35°C° 0 mm 3 m/S 748 mmHg 44%
    18:00 +32°C° 0 mm 2 m/S 748 mmHg 49%
    19:00 +30°C° 0 mm 2 m/S 748 mmHg 55%
    20:00 +29°C° 0 mm 2 m/S 748 mmHg 61%
    21:00 +28°C° 0 mm 1 m/S 749 mmHg 62%
    22:00 +27°C° 0 mm 1 m/S 749 mmHg 63%
    23:00 +27°C° 0 mm 1 m/S 750 mmHg 64%

    2 Juni, Dienstag

    Zeit Temperatur Niederschläge Wind Luftdruck Luftfeuchtigkeit
    00:00 +27°C° 0 mm 1 m/S 749 mmHg 66%
    01:00 +26°C° 0 mm 1 m/S 749 mmHg 68%
    02:00 +24°C° 0 mm 0 m/S 748 mmHg 70%
    03:00 +24°C° 0 mm 0 m/S 748 mmHg 74%
    04:00 +23°C° 0 mm 0 m/S 748 mmHg 77%
    05:00 +23°C° 0 mm 0 m/S 748 mmHg 81%
    06:00 +26°C° 0 mm 1 m/S 748 mmHg 79%
    07:00 +27°C° 0 mm 1 m/S 748 mmHg 76%
    08:00 +29°C° 0 mm 2 m/S 748 mmHg 74%
    09:00 +30°C° 0 mm 2 m/S 748 mmHg 70%
    10:00 +31°C° 0 mm 2 m/S 748 mmHg 66%
    11:00 +33°C° 0 mm 3 m/S 748 mmHg 62%
    12:00 +32°C° 0 mm 2 m/S 748 mmHg 60%
    13:00 +34°C° 0 mm 2 m/S 748 mmHg 58%
    14:00 +33°C° 0 mm 1 m/S 747 mmHg 57%
    15:00 +32°C° 0.2 mm 2 m/S 747 mmHg 61%
    16:00 +31°C° 0.2 mm 3 m/S 747 mmHg 65%
    17:00 +30°C° 0.2 mm 3 m/S 747 mmHg 69%
    18:00 +29°C° 0.1 mm 3 m/S 747 mmHg 75%
    19:00 +28°C° 0.1 mm 3 m/S 747 mmHg 80%
    20:00 +27°C° 0.1 mm 3 m/S 747 mmHg 85%
    21:00 +26°C° 0 mm 3 m/S 747 mmHg 87%
    22:00 +26°C° 0 mm 2 m/S 748 mmHg 88%
    23:00 +26°C° 0 mm 2 m/S 748 mmHg 89%

    3 Juni, Mittwoch

    Zeit Temperatur Niederschläge Wind Luftdruck Luftfeuchtigkeit
    00:00 +25°C° 0 mm 2 m/S 748 mmHg 90%
    01:00 +25°C° 0 mm 1 m/S 747 mmHg 92%
    02:00 +24°C° 0 mm 1 m/S 747 mmHg 93%
    03:00 +24°C° 0 mm 1 m/S 747 mmHg 92%
    04:00 +24°C° 0 mm 1 m/S 747 mmHg 92%
    05:00 +24°C° 0 mm 1 m/S 746 mmHg 91%
    06:00 +25°C° 0 mm 1 m/S 747 mmHg 87%
    07:00 +25°C° 0 mm 1 m/S 747 mmHg 84%
    08:00 +26°C° 0 mm 2 m/S 747 mmHg 80%
    09:00 +27°C° 0 mm 1 m/S 747 mmHg 78%
    10:00 +27°C° 0 mm 1 m/S 747 mmHg 77%
    11:00 +28°C° 0 mm 1 m/S 747 mmHg 75%
    12:00 +29°C° 0 mm 1 m/S 747 mmHg 68%
    13:00 +31°C° 0 mm 1 m/S 746 mmHg 62%
    14:00 +32°C° 0 mm 1 m/S 746 mmHg 55%
    15:00 +32°C° 0 mm 1 m/S 745 mmHg 53%
    16:00 +33°C° 0 mm 1 m/S 745 mmHg 52%
    17:00 +33°C° 0 mm 1 m/S 744 mmHg 50%
    18:00 +31°C° 0 mm 1 m/S 745 mmHg 56%
    19:00 +30°C° 0 mm 1 m/S 745 mmHg 62%
    20:00 +28°C° 0 mm 1 m/S 745 mmHg 68%
    21:00 +28°C° 0 mm 1 m/S 746 mmHg 72%
    22:00 +27°C° 0 mm 2 m/S 746 mmHg 77%
    23:00 +27°C° 0 mm 2 m/S 746 mmHg 82%

    4 Juni, Donnerstag

    Zeit Temperatur Niederschläge Wind Luftdruck Luftfeuchtigkeit
    00:00 +27°C° 0 mm 2 m/S 746 mmHg 85%
    01:00 +26°C° 0 mm 3 m/S 745 mmHg 89%
    02:00 +26°C° 0 mm 3 m/S 745 mmHg 92%
    03:00 +26°C° 0 mm 2 m/S 745 mmHg 92%
    04:00 +26°C° 0 mm 2 m/S 744 mmHg 92%
    05:00 +26°C° 0 mm 1 m/S 744 mmHg 92%
    06:00 +26°C° 0 mm 2 m/S 744 mmHg 91%
    07:00 +26°C° 0 mm 2 m/S 745 mmHg 89%
    08:00 +26°C° 0 mm 2 m/S 745 mmHg 88%
    09:00 +28°C° 0 mm 3 m/S 745 mmHg 81%
    10:00 +29°C° 0 mm 3 m/S 745 mmHg 74%
    11:00 +30°C° 0 mm 3 m/S 745 mmHg 67%
    12:00 +33°C° 0 mm 3 m/S 745 mmHg 59%
    13:00 +35°C° 0 mm 3 m/S 744 mmHg 51%
    14:00 +36°C° 0 mm 3 m/S 744 mmHg 43%
    15:00 +36°C° 0 mm 3 m/S 743 mmHg 44%
    16:00 +36°C° 0 mm 3 m/S 743 mmHg 44%
    17:00 +36°C° 0 mm 3 m/S 742 mmHg 45%
    18:00 +34°C° 0 mm 3 m/S 743 mmHg 50%
    19:00 +31°C° 0 mm 2 m/S 743 mmHg 56%
    20:00 +29°C° 0 mm 2 m/S 743 mmHg 61%
    21:00 +29°C° 0 mm 2 m/S 744 mmHg 70%
    22:00 +28°C° 0 mm 2 m/S 744 mmHg 79%
    23:00 +27°C° 0 mm 2 m/S 744 mmHg 88%
    Mehr zeigen